Theta_e
313 321 324 324 316 314 316 317 319 320 330 328 328 333 357 357 358 367 352 361 357 354 355 352 340 338 340 341 338 331 325 325 326 328 328 327 330 334 339 342 341 338 328 326 328 331 333 333 326
313 319 322 319 315 315 315 318 317 320 330 327 329 331 352 359 354 351 354 362 358 353 355 353 342 338 340 342 339 335 326 325 326 328 330 330 334 337 342 343 338 326 326 328 330 331 333 326 332
315 318 318 317 316 317 317 321 321 322 321 322 326 327 339 352 346 346 357 361 360 355 353 353 345 337 339 342 340 339 328 326 327 328 330 335 337 336 340 337 328 325 326 328 331 332 326 329 340
320 317 316 319 320 319 319 319 320 321 320 323 323 324 339 345 337 342 346 361 362 358 355 353 348 338 337 341 341 341 331 327 328 329 330 333 334 335 333 331 327 326 327 331 332 326 325 339 341
321 314 316 318 317 317 318 318 322 321 321 319 321 322 333 331 333 341 344 346 360 359 356 354 348 338 335 339 341 342 336 328 329 329 331 334 334 333 332 330 327 327 330 332 329 324 337 340 340
312 313 315 316 317 318 318 319 320 321 320 319 321 322 324 327 325 331 344 351 358 359 356 353 346 337 333 337 342 342 339 328 329 329 332 334 333 334 333 326 325 327 332 331 324 331 339 340 341
315 315 315 314 316 318 319 319 319 319 319 319 319 322 323 321 323 323 325 352 358 357 353 349 340 335 334 337 343 343 341 330 329 330 333 335 334 332 327 324 324 328 332 327 326 336 339 341 341
313 313 315 315 316 316 316 319 319 317 320 319 319 319 320 318 320 322 322 354 357 356 354 350 339 336 338 341 344 344 342 334 329 331 334 335 335 327 325 325 326 330 331 324 332 338 340 341 341
316 310 310 313 317 315 315 315 317 318 318 318 318 318 318 319 320 319 321 328 358 357 354 350 341 338 337 346 350 347 343 336 330 332 333 335 333 328 327 325 326 330 328 325 336 339 341 341 342
312 311 313 314 315 316 316 316 316 317 317 318 318 319 320 320 319 318 319 319 332 357 353 351 346 339 335 343 351 349 345 339 334 334 335 335 332 330 329 325 333 331 325 329 337 341 342 342 346
316 314 316 318 318 317 317 317 317 317 316 317 317 319 320 319 318 317 318 319 320 354 351 348 346 344 345 345 344 350 347 342 340 337 336 334 332 334 336 333 338 334 324 332 339 341 341 345 346
319 318 318 317 317 316 317 316 317 316 316 317 317 318 319 319 319 317 318 319 323 348 354 348 346 344 344 349 345 346 348 343 340 339 337 334 336 342 340 338 339 336 324 332 339 342 347 346 345
317 317 317 317 315 315 315 315 315 315 316 316 316 317 318 318 319 319 319 320 324 348 354 352 346 344 341 347 345 342 345 345 343 340 338 334 337 343 341 339 342 334 324 333 342 345 348 343 344
318 318 317 316 315 315 316 316 316 316 316 317 316 316 318 319 318 320 321 321 322 327 353 353 350 348 344 348 343 342 343 343 345 343 340 337 337 343 340 339 343 335 337 338 338 347 344 345 345
318 318 317 318 317 317 317 317 317 316 317 317 319 318 318 319 320 320 322 323 321 323 336 353 353 346 334 350 344 341 340 342 343 343 340 338 336 345 342 338 340 340 336 340 348 345 344 345 346
319 318 319 319 319 319 317 316 318 319 319 318 319 318 318 317 320 319 319 319 325 324 326 344 354 353 352 351 346 342 339 340 341 341 342 340 338 344 342 337 340 337 342 347 348 344 342 347 347
319 317 317 318 318 319 319 317 319 319 318 319 317 317 317 316 318 320 319 319 319 321 324 328 351 353 353 351 350 347 340 341 339 340 343 343 339 344 341 340 339 337 343 343 345 345 346 346 346
318 317 316 318 318 319 318 318 319 318 319 318 318 318 318 317 317 319 322 321 320 320 321 321 326 335 351 353 349 350 343 346 343 340 342 343 340 343 341 341 338 339 344 344 344 346 346 345 345
317 317 318 318 319 319 318 318 318 318 317 318 317 317 318 319 319 321 322 322 322 322 322 323 322 324 338 355 352 349 348 348 347 345 345 343 342 341 341 339 341 347 344 345 342 346 346 346 345
317 317 318 319 320 319 319 319 318 318 318 319 320 319 319 320 321 321 322 323 323 322 322 324 325 323 324 339 352 348 349 347 348 347 345 345 342 340 340 338 345 345 345 345 346 346 348 347 342
317 319 319 319 320 319 320 320 319 320 319 321 321 319 320 319 319 320 320 319 322 325 323 324 327 328 326 323 342 350 349 347 347 348 345 343 342 340 338 336 349 345 345 346 348 348 346 345 341
318 317 319 321 321 321 321 323 320 320 323 322 321 319 317 319 319 318 317 318 321 322 321 322 323 324 323 324 338 348 349 347 347 346 346 345 342 340 338 337 348 344 343 349 347 346 346 344 339
318 318 319 320 319 318 320 321 321 324 326 323 320 317 318 317 317 317 318 322 322 321 321 321 326 326 324 323 334 348 349 348 347 345 345 343 340 341 337 340 350 345 346 349 347 347 347 343 337
319 319 318 317 318 320 322 325 323 325 324 322 321 318 317 316 317 317 319 322 321 320 321 321 321 331 326 324 337 347 349 348 347 347 346 344 342 341 340 343 347 348 346 350 349 346 347 345 337
318 317 319 320 320 321 320 320 321 324 322 322 319 317 317 316 316 318 318 317 319 319 319 318 320 321 330 327 332 345 346 349 348 346 345 344 341 341 346 345 345 348 349 347 347 346 346 341 338
319 317 321 325 324 323 320 321 324 323 322 320 321 319 317 317 318 319 319 319 321 322 322 322 319 320 321 330 338 340 344 346 348 345 345 342 340 342 345 346 348 349 347 347 347 346 343 339 336
319 318 317 321 321 321 320 320 323 322 320 321 321 322 319 319 318 318 317 317 320 320 319 321 322 322 320 325 338 340 340 343 345 345 344 342 340 341 342 346 348 349 347 347 346 343 340 338 333
318 318 320 319 324 325 321 322 320 320 320 320 320 321 320 320 320 319 317 317 320 319 319 319 322 324 323 325 333 339 338 341 343 343 342 341 340 339 346 348 350 347 346 345 342 339 337 333 329
319 319 321 321 323 328 326 322 318 318 319 320 320 318 318 319 319 317 319 319 319 320 321 321 322 321 321 325 327 340 339 340 343 341 340 342 341 336 345 346 348 347 345 341 338 335 331 329 327
319 319 318 319 322 323 324 325 319 319 317 317 316 317 318 320 318 317 316 317 318 321 320 320 320 323 325 327 331 335 338 340 343 341 337 337 343 343 344 346 346 344 341 337 335 331 329 328 325
Wind_Speed
10 7 14 6 4 4 5 9 16 17 3 3 7 10 20 15 7 7 3 17 27 34 28 23 20 19 19 20 18 18 18 18 20 20 19 20 19 17 13 13 11 9 9 10 10 10 7 5 6
7 11 4 2 3 1 6 10 11 9 4 5 8 8 22 16 15 5 7 27 26 31 28 24 20 19 19 19 19 18 19 20 20 20 18 19 18 16 12 11 10 9 9 9 9 7 6 5 5
6 3 2 4 3 6 5 5 3 6 10 8 5 5 7 7 9 4 18 25 24 27 26 25 22 19 19 19 19 18 19 20 21 20 19 17 16 13 12 9 9 8 7 7 7 6 4 5 5
3 3 4 1 8 12 13 16 6 4 7 5 4 7 6 14 6 10 9 22 22 25 24 26 25 22 19 19 20 19 19 21 21 20 19 16 15 14 13 10 9 9 7 6 5 4 4 4 4
7 1 1 3 9 11 13 12 3 4 4 8 6 4 6 11 16 15 12 4 24 24 23 25 25 24 21 20 21 19 18 20 22 20 18 16 14 14 13 11 9 8 7 6 4 4 3 3 3
3 2 2 4 10 10 11 4 4 4 5 11 9 4 4 21 19 14 12 12 20 26 24 22 24 24 22 20 22 21 20 20 21 20 18 16 14 13 13 12 10 9 7 5 3 4 3 2 3
4 1 6 8 10 11 8 5 7 6 8 8 5 4 2 14 16 13 9 16 25 27 25 23 24 22 21 19 22 23 22 21 21 20 19 17 15 14 13 13 12 10 8 6 5 4 2 1 1
2 3 7 7 7 9 14 8 4 10 5 3 6 5 4 6 14 10 14 21 25 27 26 27 27 25 22 20 22 23 24 23 21 20 18 15 15 14 13 12 12 10 9 8 7 6 3 1 1
2 4 5 6 4 8 8 9 10 5 5 5 3 4 11 18 13 11 13 3 24 24 26 27 29 28 23 19 19 22 23 24 24 22 20 18 17 16 14 13 12 11 9 9 8 7 4 3 2
4 3 8 5 7 6 6 9 9 8 8 5 7 7 12 13 18 15 10 12 8 23 27 26 26 29 27 21 21 23 24 24 26 25 23 21 19 18 16 15 13 12 11 11 10 8 6 5 3
6 7 7 8 7 7 8 7 7 8 7 7 6 7 6 8 11 12 16 17 19 25 28 28 26 26 27 26 25 24 26 26 26 27 26 24 20 17 17 16 16 15 13 14 12 10 8 4 2
1 6 5 9 8 7 8 10 7 7 8 9 10 8 5 5 4 7 12 17 17 2 25 30 28 26 26 25 25 27 28 29 29 27 26 26 24 22 23 21 17 16 16 16 13 11 9 8 3
7 7 8 8 9 8 8 8 10 8 10 10 10 9 8 6 3 10 15 12 10 7 20 24 30 30 26 25 27 26 28 29 30 31 29 29 29 27 27 23 20 18 19 18 16 15 12 10 11
6 8 10 9 11 9 9 11 5 10 10 10 10 10 5 5 7 11 14 8 5 3 16 22 24 29 29 25 30 27 29 29 31 32 32 32 32 25 32 25 23 17 19 17 17 17 15 15 15
9 9 11 16 12 11 12 6 7 14 13 8 1 2 4 7 8 8 4 5 11 4 6 14 18 24 28 22 31 31 31 31 33 34 33 32 34 27 31 29 24 25 21 19 19 17 13 15 13
9 6 5 11 7 5 7 7 12 8 3 6 7 6 7 7 6 7 9 10 4 8 9 11 18 21 24 27 32 31 34 36 36 36 35 33 36 30 29 27 23 22 17 17 16 16 15 15 14
3 3 8 9 10 8 3 9 7 7 9 8 9 9 10 9 9 18 19 19 16 12 10 9 15 16 20 27 27 29 38 38 40 41 41 37 38 34 29 27 24 24 19 17 14 16 17 17 15
7 9 9 9 11 13 13 14 13 10 6 8 9 9 9 9 11 20 18 20 19 20 20 20 17 16 21 23 26 31 35 28 34 42 42 39 38 35 29 28 26 23 23 20 20 19 19 16 13
6 8 10 14 13 6 7 10 12 14 10 11 9 9 8 8 8 11 17 14 16 20 22 23 24 26 21 23 25 32 32 31 32 32 37 40 40 36 30 30 25 24 25 23 21 20 19 16 13
8 11 12 7 9 12 13 18 17 20 18 18 17 9 10 6 6 6 9 8 15 20 22 23 28 29 28 25 30 29 36 38 29 29 29 36 39 37 32 32 22 30 25 20 20 22 18 11 19
7 7 8 11 13 11 12 12 8 18 14 14 20 8 7 9 8 6 5 7 6 13 17 22 26 28 30 32 28 28 28 32 34 24 24 33 38 37 37 33 28 30 28 23 24 22 19 13 15
5 11 12 14 11 10 2 16 9 10 8 16 10 7 7 7 5 6 7 7 10 11 17 22 28 33 34 33 30 28 27 26 35 31 27 35 35 39 39 36 31 30 28 25 26 23 20 18 17
6 11 12 14 14 10 22 4 10 6 5 11 9 2 5 6 6 5 6 7 6 10 15 22 28 34 36 36 35 31 29 29 33 29 33 41 41 37 40 40 30 30 30 27 27 23 22 18 17
11 8 9 12 8 2 12 6 3 1 6 6 6 7 7 4 3 4 4 6 1 7 8 11 23 29 40 38 33 34 29 31 28 28 30 35 37 40 40 40 31 32 30 28 26 24 22 19 17
6 6 5 5 4 5 17 9 7 4 7 9 9 6 5 4 13 12 12 9 19 20 16 17 14 17 26 38 37 35 33 35 33 33 32 28 31 35 37 37 33 33 30 27 29 25 22 17 17
4 4 4 4 3 11 9 6 3 4 3 6 8 9 13 9 6 6 5 7 12 20 25 20 21 21 17 29 35 33 34 35 34 31 31 29 32 35 33 36 37 34 29 32 30 26 21 19 17
3 3 8 6 6 4 5 4 3 4 3 2 4 2 7 4 5 2 5 6 3 5 14 16 24 24 25 24 31 33 33 33 30 25 30 36 36 32 32 39 38 35 32 30 27 25 24 22 17
7 7 3 3 4 5 5 9 9 6 6 6 3 2 3 2 2 4 6 8 8 17 24 22 27 25 23 25 25 34 32 30 31 31 39 39 42 38 32 40 41 38 34 30 27 25 22 22 18
9 5 5 5 4 4 6 5 4 11 5 3 6 9 8 6 2 3 2 7 9 17 20 25 30 32 30 24 24 30 30 28 29 30 44 40 37 40 37 41 39 36 35 32 29 26 25 22 21
16 14 8 3 7 5 8 15 9 18 7 14 13 12 4 1 4 2 3 2 9 12 25 23 25 31 26 18 19 19 27 25 27 34 37 42 34 36 37 42 38 36 32 32 31 31 27 26 23
Wind_Direction
285 289 306 279 45 84 252 255 240 276 113 349 68 72 80 56 67 132 153 130 137 153 155 154 150 150 152 152 149 144 148 150 148 142 141 139 136 132 133 132 129 129 126 121 117 110 98 76 56
272 317 263 260 108 343 267 238 286 292 152 92 47 78 77 83 96 96 68 148 138 152 156 156 156 155 158 159 157 151 154 157 154 148 148 145 143 138 138 140 138 136 131 126 122 114 103 83 67
286 293 54 153 189 215 251 273 312 48 50 25 36 47 81 114 64 99 118 147 142 152 163 163 161 162 163 164 164 159 161 163 158 155 154 155 150 146 145 151 143 139 135 136 125 114 100 85 66
291 316 327 76 271 265 254 285 295 22 18 56 34 46 74 100 96 142 123 161 147 153 165 169 167 166 167 170 168 168 168 166 163 160 162 162 159 155 150 155 154 146 145 140 129 115 109 90 59
246 305 260 276 265 264 273 253 211 64 25 12 86 67 97 88 97 115 102 110 164 161 160 169 173 170 170 172 174 175 172 174 166 167 168 168 165 162 157 159 163 155 156 156 148 130 116 85 57
333 139 14 259 266 272 278 286 118 94 47 12 35 73 56 80 52 46 109 100 157 159 159 163 176 175 171 173 176 175 176 178 174 171 175 174 174 173 166 165 168 167 168 172 167 149 140 108 86
175 95 244 274 289 307 314 22 43 41 30 49 15 67 33 54 48 10 4 133 154 160 159 163 173 176 172 173 177 177 179 181 178 177 179 181 180 182 175 174 173 174 180 185 182 177 180 233 94
162 94 306 283 279 292 11 5 41 45 5 49 35 23 263 55 6 359 326 150 158 163 167 168 171 173 171 173 180 184 181 183 180 183 184 185 186 187 186 182 179 183 189 197 187 190 212 260 242
40 22 273 266 342 292 359 12 355 23 41 14 27 319 288 317 322 329 319 45 148 158 167 170 171 171 170 174 177 186 187 185 183 185 187 189 193 189 194 192 186 191 202 209 204 201 204 221 246
134 139 249 268 328 327 4 12 335 9 346 343 332 304 302 20 24 9 334 328 112 164 172 169 169 170 169 176 181 183 188 190 186 186 190 195 195 195 196 196 193 200 205 212 214 215 219 211 234
217 202 271 313 313 356 340 351 326 330 319 292 265 303 333 11 8 349 332 322 315 176 170 166 169 171 173 177 184 184 187 192 193 191 193 195 194 199 199 197 203 207 209 215 216 211 209 203 239
21 326 306 290 314 360 323 313 307 288 267 282 295 288 288 316 7 325 321 312 351 266 165 164 170 171 178 186 183 190 192 194 197 198 199 197 194 201 201 209 210 211 213 214 214 217 194 178 166
348 317 315 318 333 315 299 285 267 276 277 275 275 277 287 274 237 282 276 281 2 73 141 168 169 173 178 199 190 197 200 200 203 201 201 200 199 206 204 209 217 208 212 214 216 230 195 159 135
281 308 311 292 271 261 258 261 274 279 264 266 244 234 250 267 239 249 261 225 271 21 160 170 184 185 186 192 190 201 204 206 210 208 208 202 201 214 206 208 216 205 209 225 234 206 160 142 144
303 303 292 271 243 236 234 270 271 263 275 238 24 319 291 236 263 257 269 233 235 225 167 180 194 199 205 194 197 201 203 207 207 209 211 205 205 210 207 209 216 217 215 226 155 153 149 148 150
261 269 268 303 34 279 145 247 246 262 282 184 205 245 251 254 229 256 282 299 260 244 233 174 193 207 210 204 199 205 207 210 209 209 212 208 207 211 209 211 213 197 197 168 168 167 162 161 154
27 298 329 323 340 325 323 267 287 276 259 258 209 208 221 222 222 232 226 226 239 238 218 219 204 223 220 218 225 221 210 213 213 213 210 208 210 211 212 211 210 205 203 206 188 168 169 157 163
331 336 323 303 308 311 297 281 283 274 281 272 242 224 222 219 227 240 227 221 223 224 226 230 225 236 243 231 231 222 221 221 218 214 209 208 205 210 212 208 207 206 198 196 176 160 167 170 164
323 300 285 284 282 324 322 319 316 304 299 284 272 259 243 245 222 241 214 223 221 217 216 222 226 230 237 234 233 230 225 230 218 214 213 209 204 210 212 210 209 205 187 171 174 164 165 170 161
267 268 275 279 335 336 324 305 292 280 273 264 256 237 231 214 229 218 217 250 252 231 217 215 219 221 233 238 240 237 230 228 229 219 212 206 204 210 210 212 215 194 187 181 182 175 167 174 166
289 290 333 325 323 300 288 286 292 295 289 315 236 199 211 193 199 186 192 250 250 238 234 224 216 216 225 244 236 238 237 228 233 225 201 205 210 213 211 208 202 194 193 195 193 183 184 165 179
346 338 325 302 295 291 296 295 279 293 340 1 6 317 177 159 184 216 224 242 246 264 268 251 240 228 228 239 236 224 222 218 223 222 224 213 218 219 211 206 200 200 197 194 187 188 184 181 176
275 279 267 278 286 296 291 221 297 54 327 321 297 118 171 175 183 194 183 193 86 53 41 14 272 234 232 239 232 224 219 225 221 212 205 206 206 220 211 212 200 200 195 196 195 194 192 181 176
274 292 315 284 266 234 42 8 296 208 225 238 240 13 6 6 224 172 200 154 255 302 315 340 6 264 231 236 233 227 217 226 221 208 206 202 203 215 212 212 200 198 194 194 198 194 191 186 176
308 357 324 341 354 244 349 332 232 46 33 0 22 355 331 0 57 52 41 27 6 343 317 330 326 344 285 237 236 230 225 231 226 219 202 199 188 206 210 204 201 195 194 193 190 189 189 183 180
302 173 185 279 299 299 316 250 276 190 113 70 14 9 41 54 55 60 75 34 27 2 341 325 307 286 293 282 253 238 237 236 232 233 212 190 189 204 208 202 197 190 184 184 183 187 183 182 166
293 302 237 258 264 319 246 276 249 211 64 196 167 327 28 78 73 50 329 325 49 342 322 292 287 301 292 294 259 246 244 246 234 207 198 176 195 201 203 206 193 186 180 178 183 185 178 186 174
182 217 305 300 304 257 253 304 268 275 18 40 37 258 237 281 131 219 271 291 338 309 304 300 307 283 294 294 283 250 249 252 235 211 176 185 174 196 209 199 188 184 183 179 177 174 175 175 168
292 298 273 212 177 224 282 244 299 312 337 327 282 265 247 210 175 307 259 264 298 312 312 316 316 292 292 290 308 266 254 249 228 201 178 174 185 190 200 203 186 180 177 176 171 171 167 164 162
269 272 262 183 268 237 255 271 270 268 260 308 294 278 213 50 250 129 69 326 316 314 318 314 314 306 286 307 310 292 262 250 214 187 175 182 185 175 194 194 185 180 176 173 168 166 165 165 161